Weather observations for the past three days for
Beaumont Municipal Airport
Metric (Imperial)
Date Time (cdt) Wind (kph) Vis. (km) Weather Sky Cond. Temperature (ºC) Relative Humidity Wind Chill (°C) Heat Index (°C) Pressure Precipitation (cm)
Air Dwpt 6 hour altimeter (cm) sea level (mb) 1 hr 3 hr 6 hr
Max. Min.
02 06:55 S 9 16.09 Thunderstorm in Vicinity SCT024 BKN038 BKN050 26.3 24.4 26.4 23.7 89% 29 76.05 0.0
02 06:35 S 6 16.09 Thunderstorm in Vicinity SCT026 SCT046 OVC110 26.3 24.2 88% 29 76.05 0.0
02 06:15 S 9 16.09 Mostly Cloudy SCT026 SCT045 BKN120 26.2 24.2 89% 28 76.05 0.0
02 05:55 S 7 16.09 Thunderstorm SCT120 26.2 24.1 88% 28 76.02 0.0
02 05:35 S 9 16.09 Thunderstorm in Vicinity SCT028 SCT046 SCT060 26 24.3 90% 28 76.02 0.0
02 05:15 S 13 16.09 Thunderstorm in Vicinity SCT020 SCT034 BKN090 25.8 24.3 91% 28 76.02 0.0
02 04:55 S 19 G 33 16.09 Thunderstorm Rain in Vicinity SCT020 SCT033 BKN100 26.2 24.2 89% 28 76.02 0.0
02 04:35 S 13 16.09 Thunderstorm in Vicinity SCT100 26 24.2 90% 28 76 0.0
02 04:15 SE 13 16.09 Thunderstorm in Vicinity SCT060 SCT070 SCT090 25.9 24.2 90% 28 76 0.0
02 03:55 SE 15 16.09 Thunderstorm Light Rain SCT029 SCT060 OVC090 25.7 24.1 91% 27 75.97 0.0
02 03:35 S 13 16.09 Thunderstorm Light Rain SCT027 BKN065 OVC090 25.7 24.2 91% 27 75.97 0.0
02 03:15 S 13 16.09 Thunderstorm Light Rain SCT030 BKN075 OVC090 25.6 24.2 92% 27 76 0.0
02 02:55 S 13 16.09 Thunderstorm Light Rain SCT024 SCT050 OVC065 25.5 24.1 92% 27 76.02 0.0
02 02:35 S 11 16.09 Thunderstorm Rain in Vicinity BKN024 BKN038 OVC085 25.4 24 92% 27 76.02 0.0
02 02:15 SE 15 16.09 Thunderstorm Light Rain in Vicinity SCT024 BKN065 OVC085 24.9 23.6 93% 25 76 0.0
02 01:55 SE 11 16.09 Thunderstorm SCT026 BKN046 OVC065 24.3 23.1 93% 24 76 0.0
02 01:35 SE 15 16.09 Thunderstorm Light Rain SCT015 BKN024 OVC045 24.1 23 94% 23 76 0.0
02 01:15 SE 13 G 26 0.80 Thunderstorm Heavy Rain BKN009 OVC017 23.9 22.7 93% 23 76.02 0.0
02 00:55 SE 33 G 41 8.05 Thunderstorm Light Rain and Breezy SCT009 BKN025 OVC042 24.2 22.9 25.3 23.7 92% 24 76.02 0.0
02 00:35 SE 15 16.09 Thunderstorm in Vicinity BKN025 BKN031 OVC048 24.9 23.2 90% 25 76.02 0.0
02 00:15 SE 11 16.09 Light Drizzle SCT027 OVC036 25 23 89% 26 75.97 0.0
01 23:55 S 11 16.09 Overcast BKN032 OVC038 25.1 23 88% 26 76 0.0
01 23:35 S 11 16.09 Overcast SCT032 SCT040 OVC048 25 23 89% 26 76 0.0
01 23:15 S 13 16.09 Overcast OVC044 25.2 22.8 87% 26 76 0.0
01 22:55 S 13 16.09 Overcast SCT024 SCT029 OVC044 25.1 22.9 88% 26 76 0.0
01 22:35 S 17 16.09 Light Rain OVC024 25 23.2 90% 26 75.97 0.0
01 22:15 S 22 G 33 16.09 Thunderstorm BKN028 OVC035 24.6 23.2 92% 25 75.95 0.0
01 21:55 S 20 G 28 16.09 Overcast SCT012 BKN030 OVC048 24.4 23.1 93% 24 75.92 0.0
01 21:35 S 19 G 28 16.09 Overcast SCT008 BKN012 OVC050 24.3 23.1 93% 24 75.9 0.0
01 21:15 S 24 G 33 16.09 Overcast BKN008 BKN012 OVC021 24.1 23.2 95% 23 75.82 0.0
01 20:55 S 24 G 44 11.27 Overcast SCT006 BKN013 OVC021 24 23.1 95% 23 75.77 0.0
01 20:35 S 30 G 44 8.05 Fog/Mist BKN008 OVC015 24 23 94% 23 75.72 0.0
01 20:15 S 31 G 46 16.09 Light Rain BKN010 OVC017 24 23.1 95% 23 75.67 0.0
01 19:55 SW 39 G 54 16.09 Overcast and Breezy OVC010 24 23.1 95% 23 75.44 0.0
01 19:35 SW 37 G 54 11.27 Light Drizzle and Breezy OVC010 24 23.1 95% 23 75.36 0.0
01 19:15 SW 48 G 63 4.83 Rain and Windy OVC008 23.8 23 95% 75.29 0.0
01 18:55 SW 57 G 78 1.21 Heavy Rain and Windy OVC006 23.8 23 27.8 23.3 95% 75.26 0.0
01 18:35 W 67 0.00 Windy NULL 0 0 0% 75.23 0.0
01 18:15 NW 69 G 93 0.40 Thunderstorm Heavy Rain and Windy OVC005 23.5 22.7 95% 75.16 0.0
01 17:55 NW 57 G 78 0.40 Heavy Rain and Windy OVC005 23.3 22.5 95% 75.34 0.0
01 17:35 N 43 G 72 4.02 Heavy Rain and Windy NULL 24.2 23.2 94% 24 75.41 0.0
01 17:15 N 54 G 69 4.02 Rain and Windy BKN009 OVC013 24.1 23.1 94% 23 75.46 0.0
01 16:55 N 41 G 63 1.61 Thunderstorm Heavy Rain and Breezy OVC007 24.3 23.2 94% 24 75.54 0.0
01 16:35 NW 48 G 57 1.61 Heavy Rain and Windy OVC009 24.5 23.4 94% 24 75.57 0.0
01 16:15 N 39 G 52 4.02 Heavy Rain and Breezy BKN012 OVC020 24.3 23 92% 24 75.69 0.0
01 15:55 N 41 G 52 2.41 Rain and Breezy BKN012 OVC017 24.2 23 93% 24 75.74 0.0
01 15:35 N 30 G 46 4.83 Rain SCT016 BKN036 OVC050 24.5 23 91% 25 75.82 0.0
01 15:15 N 26 G 37 4.02 Heavy Rain SCT026 BKN034 OVC060 24.8 23.1 90% 25 75.84 0.0
01 14:55 N 22 G 35 8.05 Rain SCT040 BKN049 OVC070 25.1 23.2 89% 26 75.9 0.0
01 14:35 N 24 G 39 16.09 Rain SCT024 SCT041 OVC070 25.5 23.1 87% 27 75.92 0.0
01 14:15 N 19 G 33 16.09 Rain SCT026 SCT034 OVC070 26.1 23.5 86% 28 75.95 0.0
01 13:55 N 24 G 31 11.27 Rain SCT026 BKN050 OVC055 26.4 24 87% 29 75.95 0.0
01 13:35 N 22 16.09 Light Rain SCT034 OVC060 27.3 24.2 83% 31 75.92 0.0
01 13:15 N 24 G 30 16.09 Light Rain SCT024 SCT030 BKN055 27.5 24.2 82% 31 75.97 0.0
01 12:55 N 17 16.09 Light Drizzle SCT034 BKN060 OVC080 27.6 24.4 27.6 23.3 83% 31 76.02 0.0
01 12:35 N 20 G 31 16.09 Thunderstorm Light Rain in Vicinity SCT014 SCT030 BKN050 27.1 24.5 86% 31 76.05 0.0
01 12:15 N 19 G 28 16.09 Light Drizzle SCT016 BKN020 BKN035 26.7 24.6 88% 30 76.05 0.0
01 11:55 N 15 G 26 16.09 Light Rain BKN015 OVC019 26.2 24.1 88% 28 76.07 0.0
01 11:35 N 17 16.09 Light Rain BKN013 BKN022 BKN044 26 24 89% 28 76.12 0.0
01 11:15 N 15 16.09 Mostly Cloudy SCT011 SCT021 BKN030 26 24 89% 28 76.12 0.0
01 10:55 N 13 16.09 Overcast SCT007 BKN030 OVC120 25.1 23.6 91% 26 76.15 0.0
01 10:35 N 17 16.09 Light Drizzle SCT007 SCT045 BKN090 24.8 23.5 93% 25 76.12 0.0
01 10:15 N 13 16.09 Light Rain BKN009 BKN041 OVC090 24.6 23.3 93% 25 76.12 0.0
01 09:55 N 13 16.09 Light Rain SCT009 BKN034 BKN046 24.6 23.4 93% 25 76.15 0.0
01 09:35 N 9 16.09 Drizzle SCT036 SCT042 SCT050 24.6 23.2 92% 25 76.15 0.0
01 09:15 N 11 16.09 Rain SCT022 BKN045 OVC060 24.5 23 91% 25 76.17 0.0
01 08:55 Calm 16.09 Drizzle SCT050 SCT065 24.5 22.8 90% 25 76.17 0.0
01 08:35 Calm 16.09 Drizzle SCT050 SCT120 24.1 22.7 92% 24 76.15 0.0
01 08:15 N 9 16.09 Light Rain SCT023 SCT050 BKN120 24 22.5 91% 23 76.15 0.0
01 07:55 NW 9 16.09 Partly Cloudy SCT023 24.1 22.5 91% 24 76.15 0.0
01 07:35 Calm 16.09 Fair CLR 23.5 22.1 92% 76.15 0.0
01 07:15 N 7 16.09 Fair CLR 23.4 22 92% 76.12 0.0
01 06:55 NW 11 16.09 Fair CLR 23.3 22 26.6 23.3 92% 76.1 0.0
01 06:35 N 7 16.09 Fair CLR 23.5 22.1 92% 76.1 0.0
01 06:15 N 7 16.09 Fair CLR 23.6 22.1 91% 76.07 0.0
01 05:55 N 6 16.09 Fair CLR 23.7 22.1 91% 76.1 0.0
01 05:35 NW 7 16.09 Fair CLR 23.7 22 90% 76.07 0.0
01 05:15 N 7 16.09 Fair CLR 23.6 22.1 91% 76.1 0.0
01 04:55 N 6 16.09 Fair CLR 24.1 22.1 89% 24 76.1 0.0
01 04:35 N 6 16.09 Fair CLR 24.1 22.2 89% 24 76.1 0.0
01 04:15 N 7 16.09 Fair CLR 24.1 22.1 89% 24 76.07 0.0
01 03:55 N 7 16.09 Fair CLR 24.1 22.2 89% 24 76.07 0.0
01 03:35 N 6 16.09 Fair CLR 24.7 22.4 87% 25 76.1 0.0
01 03:15 N 6 16.09 Fair CLR 25 22.4 86% 26 76.1 0.0
01 02:55 Calm 16.09 Fair CLR 25 22.5 86% 26 76.1 0.0
01 02:35 N 7 16.09 Fair CLR 25 22.6 87% 26 76.1 0.0
01 02:15 N 6 16.09 Fair CLR 25.1 22.5 86% 26 76.12 0.0
01 01:55 Calm 16.09 Fair CLR 24.2 22.5 90% 24 76.15 0.0
01 01:35 N 7 16.09 Fair CLR 25 22.5 86% 26 76.15 0.0
01 01:15 Calm 16.09 Fair CLR 25.7 22.6 83% 27 76.15 0.0
01 00:55 Calm 16.09 Fair CLR 26.3 22.5 32.5 26 80% 28 76.15 0.0
01 00:35 Calm 16.09 Fair CLR 26.1 22.5 81% 28 76.15 0.0
01 00:15 E 6 16.09 Fair CLR 26.4 22.5 79% 28 76.15 0.0
31 23:55 Calm 16.09 Fair CLR 27 22.3 76% 29 76.15 0.0
31 23:35 E 7 16.09 Fair CLR 27 22.1 75% 29 76.15 0.0
31 23:15 E 6 16.09 Fair CLR 27.6 22 72% 30 76.15 0.0
31 22:55 E 7 16.09 Fair CLR 27.5 21.8 71% 30 76.15 0.0
31 22:35 E 6 16.09 Fair CLR 27.8 22 71% 30 76.12 0.0
31 22:15 E 7 16.09 Fair CLR 28 21.9 70% 31 76.1 0.0
31 21:55 SE 11 16.09 Fair CLR 28.2 22 69% 31 76.1 0.0
31 21:35 SE 7 16.09 Fair CLR 28 22.1 70% 31 76.07 0.0
31 21:15 SE 7 16.09 Fair CLR 28.6 21.6 66% 31 76.07 0.0
31 20:55 E 15 16.09 Fair CLR 29.4 21.2 61% 32 76.07 0.0
31 20:35 SE 13 16.09 Thunderstorm in Vicinity CLR 29.6 21.3 61% 32 76.05 0.0
31 20:15 SE 17 G 26 16.09 Fair CLR 30 20.8 58% 32 76.05 0.0
31 19:55 E 15 16.09 Fair CLR 30.1 22 62% 33 76.02 0.0
31 19:35 SE 19 G 28 16.09 Partly Cloudy SCT055 SCT085 SCT110 30.5 21.9 60% 34 76.05 0.0
31 19:15 SE 26 G 31 16.09 Overcast BKN055 BKN075 OVC110 31.4 20.9 54% 34 76.05 0.0
31 18:35 SE 9 16.09 Overcast OVC065 33 19.3 44% 35 76.02 0.0
31 18:15 E 9 16.09 Mostly Cloudy BKN065 33.5 18.7 42% 35 76.02 0.0
31 17:55 E 9 16.09 Partly Cloudy SCT065 34.8 18.9 39% 37 76 0.0
31 17:35 NE 9 16.09 Partly Cloudy SCT065 35.4 19 38% 37 76.02 0.0
31 17:15 E 9 16.09 Partly Cloudy SCT060 34.8 17.8 36% 36 76.02 0.0
31 16:55 E 7 16.09 Partly Cloudy SCT060 34.3 19.2 41% 36 76.02 0.0
31 16:35 Calm 16.09 Fair CLR 35.1 19.1 39% 37 76.02 0.0
31 16:15 E 11 16.09 Partly Cloudy SCT060 34.6 19.2 40% 37 76.05 0.0
31 15:55 NE 9 16.09 Partly Cloudy SCT060 34.1 19.2 41% 36 76.07 0.0
31 15:35 NE 9 16.09 Partly Cloudy SCT060 34.8 18.6 38% 36 76.07 0.0
31 15:15 E 15 16.09 Fair CLR 34.9 19.1 39% 37 76.1 0.0
31 14:55 E 15 16.09 Fair CLR 34.7 18.7 39% 36 76.1 0.0
31 14:35 E 11 16.09 Partly Cloudy SCT050 34.2 19.2 41% 36 76.15 0.0
31 14:15 E 11 16.09 Partly Cloudy SCT050 SCT070 34.2 19.6 42% 36 76.15 0.0
31 13:55 NE 6 16.09 Partly Cloudy SCT050 BKN060 SCT070 33.3 20.4 47% 36 76.17 0.0
31 13:35 N 7 16.09 Partly Cloudy SCT048 SCT050 SCT070 33.5 20.6 47% 36 76.2 0.0
31 13:15 NE 15 16.09 Partly Cloudy SCT050 SCT065 33.2 20.9 48% 36 76.2 0.0
31 12:55 NE 11 16.09 Partly Cloudy SCT044 33.3 20.9 33.5 24.5 48% 36 76.23 0.0
31 12:35 NE 11 16.09 Mostly Cloudy BKN040 33.2 21.7 51% 37 76.25 0.0
31 12:15 N 7 16.09 Mostly Cloudy SCT038 SCT050 BKN055 32.1 22.3 56% 36 76.28 0.0
31 11:55 N 7 16.09 Partly Cloudy SCT055 31.4 22.3 58% 35 76.25 0.0
31 11:35 N 6 16.09 Partly Cloudy SCT035 SCT042 SCT049 31.2 22.3 59% 35 76.28 0.0
31 11:15 N 7 16.09 Mostly Cloudy SCT029 SCT035 BKN048 30.5 22.5 62% 34 76.28 0.0
31 10:55 E 13 16.09 Mostly Cloudy BKN029 BKN035 30.9 22.9 62% 35 76.28 0.0
31 10:35 Calm 16.09 Partly Cloudy SCT027 30.3 22.7 64% 34 76.28 0.0
31 10:15 N 9 16.09 Partly Cloudy SCT027 31 22.8 62% 35 76.28 0.0
31 09:55 NE 9 16.09 Fair CLR 30.2 22.6 64% 34 76.28 0.0
31 09:35 NE 7 16.09 Fair CLR 29.8 22.7 66% 34 76.28 0.0
31 09:15 NE 7 16.09 Fair CLR 29.3 23.2 70% 33 76.28 0.0
31 08:55 Calm 16.09 Fair CLR 28.6 23.8 75% 33 76.28 0.0
31 08:35 NE 6 16.09 Fair CLR 27.6 24 81% 31 76.25 0.0
31 08:15 N 7 16.09 Partly Cloudy SCT110 26.7 23.9 85% 29 76.25 0.0
31 07:55 N 7 16.09 Mostly Cloudy SCT036 BKN110 25.7 23.6 88% 27 76.23 0.0
31 07:35 Calm 16.09 Overcast SCT036 SCT050 OVC120 25 23.5 91% 26 76.2 0.0
31 07:15 Calm 16.09 Mostly Cloudy SCT038 SCT050 BKN120 24.8 23.1 90% 25 76.2 0.0
31 06:55 Calm 16.09 Partly Cloudy SCT040 SCT050 24.5 23 25.6 23.3 91% 25 76.17 0.0
31 06:35 Calm 16.09 Mostly Cloudy BKN042 25 23.2 90% 26 76.15 0.0
31 06:15 Calm 16.09 Overcast SCT032 BKN037 OVC044 24.6 22.7 89% 25 76.15 0.0
31 05:55 Calm 16.09 Mostly Cloudy BKN035 BKN042 24.6 23.1 91% 25 76.15 0.0
Date Time (cdt) Wind (kph) Vis. (km) Weather Sky Cond. Air Dwpt Max. Min. Relative Humidity Wind Chill (°C) Heat Index (°C) altimeter (cm) sea level (mb) 1 hr 3 hr 6 hr
6 hour
Temperature (ºC) Pressure Precipitation (cm)